Flag for Germany Weather past 2 weeks in Zeitz, Saxony-Anhalt, Germany

Now
69 °F

Passing clouds.


Feels Like: 69 °F
Forecast: 51 / 73 °F
Wind: 3 mph from Southeast

Location: Gera-Leumnitz

Current Time: Sep 17, 2014 at 2:10:21 PM

Latest Report: Sep 17, 2014 at 1:00 PM


Visibility: 19 mi

Pressure: 29.97 "Hg

Humidity: 65%

Dew point: 56 °F

Location of ZeitzLocation

Historic Weather in Zeitz — Graph

°F

Zeitz temperature yesterday

Maximum temperature yesterday: 72 °F (at 2:00 PM)
Minimum temperature yesterday: 56 °F (at 8:00 AM)
Average temperature yesterday: 63 °F

Past Weeks' High & Low Weather Summary

 TemperatureHumidityPressure
High78 °F (Sep 6, 3:00 PM)99% (Sep 4, 8:00 AM)30.25 "Hg (Sep 4, 8:00 AM)
Low52 °F (Sep 11, 4:00 AM)53% (Sep 6, 5:00 PM)29.85 "Hg (Sep 6, 5:00 PM)
Average60 °F87%30.05 "Hg
* Reported Sep 2 1:00 PM — Sep 17 1:00 PM, Zeitz, Weather by CustomWeather, © 2014

Note: Actual official high and low records may vary slightly from our data, if they occured in-between our weather recording intervals... More about our weather records

Advertising

Zeitz weather history for previous 24 hours

 ConditionsComfort  
Time TempWeatherWind HumidityBarometerVisibility
1:00 PM
Sep 17
69 °FPassing clouds.3 mph65%29.97 "Hg19 mi
12:00 PM66 °FPassing clouds.3 mph70%29.98 "Hg17 mi
11:00 AM64 °FSunny.5 mph74%29.99 "Hg14 mi
10:00 AM61 °FSunny.3 mph83%30.00 "Hg11 mi
9:00 AM57 °FSunny.3 mph91%30.02 "Hg6 mi
8:00 AM54 °FSunny.1 mph92%30.01 "Hg5 mi
7:00 AM52 °FSunny.3 mph95%30.02 "Hg12 mi
6:00 AM54 °FClear.3 mph90%30.01 "Hg14 mi
5:00 AM55 °FClear.3 mph91%30.01 "Hg5 mi
4:00 AM56 °FClear.6 mph89%30.01 "Hg6 mi
3:00 AM55 °FClear.5 mph91%30.02 "Hg6 mi
2:00 AM56 °FClear.5 mph92%30.03 "Hg7 mi
1:00 AM58 °FPassing clouds.5 mph86%30.03 "Hg9 mi
12:00 AM58 °FOvercast.6 mph86%30.03 "Hg9 mi
11:00 PM
Sep 16
61 °FPassing clouds.6 mph83%30.03 "Hg9 mi
10:00 PM61 °FClear.6 mph82%30.03 "Hg9 mi
9:00 PM63 °FPassing clouds.5 mph80%30.03 "Hg17 mi
8:00 PM65 °FOvercast.6 mph74%30.01 "Hg17 mi
7:00 PM68 °FOvercast.6 mph69%30.00 "Hg22 mi
6:00 PM70 °FOvercast.7 mph62%30.00 "Hg22 mi
5:00 PM72 °FPartly sunny.6 mph59%29.99 "Hg17 mi
4:00 PM72 °FPartly sunny.6 mph56%30.00 "Hg17 mi
3:00 PM72 °FPartly sunny.7 mph56%30.01 "Hg16 mi
2:00 PM72 °FOvercast.6 mph62%30.02 "Hg16 mi
Weather by CustomWeather, © 2014

See weather overviewHow to use our weather pages